IRIDIUM 152

Last updated on Fri Sep 11 2026 00:03:06 GMT+0000 (Coordinated Universal Time)

1 43479U 18047D 26253.49849856 .00000026 00000+0 22443-5 0 9995 2 43479 86.3929 52.6302 0002185 91.6665 268.4781 14.34217757434719
UTC large
Height (km)
Speed (km/s)
/
Latitude / Longitude
Inclination (degrees)
Orbital Period (minutes)
Azimuth
Elevation
Range (km)
Doppler Factor

Next 0 passes for location: London (51.5072 / 0.1276)

No passes found over London.